TimeCDT,TemperatureF,Dew PointF,Humidity,Sea Level PressureIn,VisibilityMPH,Wind Direction,Wind SpeedMPH,Gust SpeedMPH,PrecipitationIn,Events,Conditions,WindDirDegrees,DateUTC
12:15 AM,67.3,64.6,91,29.94,10.0,South,12.7,20.7,N/A,,Clear,190,2013-06-16 05:15:00
12:35 AM,68.0,64.4,88,29.92,10.0,SSW,5.8,-,N/A,,Clear,210,2013-06-16 05:35:00
12:55 AM,67.3,64.4,90,29.91,10.0,SSW,3.5,-,N/A,,Scattered Clouds,200,2013-06-16 05:55:00
1:15 AM,66.7,64.4,92,29.91,10.0,Calm,Calm,-,N/A,,Scattered Clouds,0,2013-06-16 06:15:00
1:35 AM,67.1,64.9,93,29.91,10.0,West,3.5,-,N/A,,Clear,280,2013-06-16 06:35:00
1:55 AM,66.9,64.4,92,29.91,10.0,WSW,3.5,-,N/A,,Clear,250,2013-06-16 06:55:00
2:15 AM,66.4,64.4,93,29.91,10.0,SW,4.6,-,N/A,,Clear,230,2013-06-16 07:15:00
2:35 AM,66.0,63.9,93,29.91,10.0,SW,3.5,-,N/A,,Clear,220,2013-06-16 07:35:00
2:55 AM,65.5,63.7,94,29.92,10.0,SSW,3.5,-,N/A,,Clear,210,2013-06-16 07:55:00
3:15 AM,65.5,63.9,94,29.91,10.0,Calm,Calm,-,N/A,,Clear,0,2013-06-16 08:15:00
3:35 AM,65.3,63.7,94,29.91,10.0,SW,3.5,-,N/A,,Clear,230,2013-06-16 08:35:00
3:55 AM,64.9,63.5,95,29.91,10.0,SSW,4.6,-,N/A,,Clear,210,2013-06-16 08:55:00
4:15 AM,65.7,63.1,92,29.92,10.0,SW,5.8,-,N/A,,Clear,220,2013-06-16 09:15:00
4:35 AM,65.5,63.0,92,29.93,10.0,SW,5.8,-,N/A,,Clear,230,2013-06-16 09:35:00
4:55 AM,65.7,62.8,90,29.94,10.0,SW,4.6,-,N/A,,Clear,230,2013-06-16 09:55:00
5:15 AM,64.9,62.6,92,29.94,10.0,SW,3.5,-,N/A,,Clear,220,2013-06-16 10:15:00
5:35 AM,64.8,62.6,93,29.94,10.0,Calm,Calm,-,N/A,,Clear,0,2013-06-16 10:35:00
5:55 AM,65.1,62.2,90,29.95,10.0,WSW,3.5,-,N/A,,Clear,240,2013-06-16 10:55:00
6:15 AM,65.3,62.6,91,29.95,10.0,SW,4.6,-,N/A,,Clear,230,2013-06-16 11:15:00
6:35 AM,66.2,62.8,89,29.95,10.0,WSW,4.6,-,N/A,,Clear,240,2013-06-16 11:35:00
6:55 AM,66.4,63.1,89,29.95,10.0,SW,4.6,-,N/A,,Clear,230,2013-06-16 11:55:00
7:15 AM,67.3,63.5,88,29.96,10.0,WSW,5.8,-,N/A,,Clear,250,2013-06-16 12:15:00
7:35 AM,68.0,63.9,87,29.96,10.0,WSW,4.6,-,N/A,,Clear,240,2013-06-16 12:35:00
7:55 AM,68.0,63.9,87,29.96,10.0,WSW,3.5,-,N/A,,Mostly Cloudy,250,2013-06-16 12:55:00
8:15 AM,68.2,64.6,88,29.96,10.0,SW,4.6,-,N/A,,Overcast,220,2013-06-16 13:15:00
8:35 AM,69.1,64.8,86,29.96,10.0,WSW,5.8,-,N/A,,Overcast,250,2013-06-16 13:35:00
8:55 AM,69.6,64.6,84,29.96,10.0,West,6.9,-,N/A,,Overcast,260,2013-06-16 13:55:00
9:15 AM,70.2,64.9,83,29.97,10.0,West,8.1,-,N/A,,Overcast,270,2013-06-16 14:15:00
9:35 AM,70.2,65.3,85,29.97,10.0,West,5.8,-,N/A,,Overcast,280,2013-06-16 14:35:00
9:55 AM,70.9,65.5,83,29.96,10.0,West,6.9,-,N/A,,Overcast,270,2013-06-16 14:55:00
10:15 AM,71.6,66.4,84,29.96,10.0,West,4.6,-,N/A,,Overcast,280,2013-06-16 15:15:00
10:35 AM,72.9,66.4,80,29.95,10.0,West,6.9,-,N/A,,Overcast,280,2013-06-16 15:35:00
10:55 AM,73.9,66.7,78,29.95,10.0,West,5.8,-,N/A,,Mostly Cloudy,270,2013-06-16 15:55:00
11:15 AM,74.3,66.6,77,29.95,10.0,West,6.9,-,N/A,,Scattered Clouds,270,2013-06-16 16:15:00
11:35 AM,74.3,67.1,78,29.95,10.0,West,8.1,-,N/A,,Mostly Cloudy,270,2013-06-16 16:35:00
11:55 AM,75.0,66.2,74,29.95,10.0,West,8.1,-,N/A,,Overcast,260,2013-06-16 16:55:00
12:15 PM,75.7,66.9,74,29.95,10.0,WSW,6.9,-,N/A,,Overcast,240,2013-06-16 17:15:00
12:35 PM,74.8,66.7,76,29.95,10.0,West,6.9,-,N/A,,Overcast,260,2013-06-16 17:35:00
12:55 PM,75.6,67.3,75,29.95,10.0,West,5.8,-,N/A,,Overcast,260,2013-06-16 17:55:00
1:15 PM,75.9,67.5,75,29.95,10.0,SSW,8.1,-,N/A,,Overcast,210,2013-06-16 18:15:00
1:35 PM,75.4,67.3,76,29.95,10.0,SW,8.1,-,N/A,,Mostly Cloudy,220,2013-06-16 18:35:00
1:55 PM,76.1,68.0,76,29.95,10.0,SW,10.4,-,N/A,,Scattered Clouds,230,2013-06-16 18:55:00
2:15 PM,77.0,67.6,73,29.95,10.0,SSW,9.2,-,N/A,,Clear,210,2013-06-16 19:15:00
2:35 PM,77.0,66.4,70,29.95,10.0,WSW,6.9,-,N/A,,Clear,240,2013-06-16 19:35:00
2:55 PM,78.3,67.6,70,29.94,10.0,SW,9.2,-,N/A,,Clear,230,2013-06-16 19:55:00
3:15 PM,79.0,67.1,67,29.94,10.0,SW,6.9,-,N/A,,Clear,230,2013-06-16 20:15:00
3:35 PM,80.1,67.8,66,29.94,10.0,SW,6.9,-,N/A,,Clear,230,2013-06-16 20:35:00
3:55 PM,79.7,66.9,65,29.93,10.0,WSW,6.9,-,N/A,,Clear,250,2013-06-16 20:55:00
4:15 PM,80.4,68.0,66,29.94,10.0,WSW,10.4,-,N/A,,Clear,240,2013-06-16 21:15:00
4:35 PM,80.8,66.9,63,29.93,10.0,WSW,5.8,-,N/A,,Clear,250,2013-06-16 21:35:00
4:55 PM,81.5,67.6,63,29.93,10.0,WSW,9.2,-,N/A,,Clear,240,2013-06-16 21:55:00
5:15 PM,81.3,67.3,62,29.93,10.0,SW,6.9,-,N/A,,Clear,230,2013-06-16 22:15:00
5:35 PM,81.5,65.7,58,29.92,10.0,SW,6.9,-,N/A,,Clear,230,2013-06-16 22:35:00
5:55 PM,81.7,66.9,61,29.92,10.0,SW,6.9,-,N/A,,Clear,230,2013-06-16 22:55:00
6:15 PM,81.5,66.9,61,29.91,10.0,WSW,5.8,-,N/A,,Clear,240,2013-06-16 23:15:00
6:35 PM,80.6,66.2,61,29.91,10.0,SW,6.9,-,N/A,,Clear,230,2013-06-16 23:35:00
6:55 PM,80.6,66.7,63,29.91,10.0,SW,6.9,-,N/A,,Clear,230,2013-06-16 23:55:00
7:15 PM,79.7,67.1,65,29.91,10.0,SW,5.8,-,N/A,,Clear,230,2013-06-17 00:15:00
7:35 PM,78.8,67.3,68,29.91,10.0,SW,5.8,-,N/A,,Clear,230,2013-06-17 00:35:00
7:55 PM,77.0,67.3,72,29.91,10.0,SSW,3.5,-,N/A,,Clear,210,2013-06-17 00:55:00
8:15 PM,75.7,67.3,75,29.91,10.0,Calm,Calm,-,N/A,,Clear,0,2013-06-17 01:15:00
8:35 PM,75.2,67.1,76,29.91,10.0,South,3.5,-,N/A,,Clear,170,2013-06-17 01:35:00
8:55 PM,74.3,66.7,77,29.91,10.0,SSE,3.5,-,N/A,,Clear,160,2013-06-17 01:55:00
9:15 PM,71.1,66.6,86,29.91,10.0,Calm,Calm,-,N/A,,Clear,0,2013-06-17 02:15:00
9:35 PM,71.1,66.2,85,29.92,10.0,Calm,Calm,-,N/A,,Clear,0,2013-06-17 02:35:00
9:55 PM,70.0,65.7,86,29.93,10.0,SSW,3.5,-,N/A,,Clear,210,2013-06-17 02:55:00
10:15 PM,68.5,65.5,90,29.95,10.0,Calm,Calm,-,N/A,,Clear,0,2013-06-17 03:15:00
10:35 PM,69.8,66.0,88,29.95,10.0,SW,5.8,-,N/A,,Clear,220,2013-06-17 03:35:00
11:15 PM,71.1,66.4,85,29.94,10.0,SSW,3.5,-,N/A,,Clear,210,2013-06-17 04:15:00
11:35 PM,68.9,65.8,90,29.94,10.0,Calm,Calm,-,N/A,,Clear,0,2013-06-17 04:35:00
11:55 PM,68.4,65.5,90,29.94,10.0,Calm,Calm,-,N/A,,Clear,0,2013-06-17 04:55:00